Weather Roundup
Issued by NWS

Home | Current Version | Previous Version | Graphics & Text | Print | Product List | Glossary Off
Versions: 1 2 3 4 5 6 7 8 9 10 11 12 13 14 15 16 17 18 19 20 21 22 23 24 25 26 27 28 29 30 31 32 33 34 35 36 37 38 39 40 41 42 43 44 45 46 47 48 49 50

000
NZUS93 KARX 180159
HRRWXR

CURRENT HOURLY OBSERVATIONS ACROSS
MUCH OF THE UPPER MISSISSIPPI VALLEY
NATIONAL WEATHER SERVICE LA CROSSE WI
900 PM CDT FRI APR 17 2015


...SOUTHEAST MINNESOTA...


CITY           SKY/WX    TMP DP  RH WIND       PRES   REMARKS
ROCHESTER      PTCLDY    65  43  44 N6        30.03R
ROCHESTER/MAYO FAIR      68  42  38 NW3       30.03R
WINONA         PTCLDY    70  46  43 CALM      30.00R
AUSTIN         MOCLDY    64  45  48 N3        30.03R
ALBERT LEA     MOCLDY    64  43  45 CALM      30.03R
DODGE CENTER   MOCLDY    64  43  45 N6        30.04R
PRESTON        MOCLDY    65  43  43 NW3       30.03R
OWATONNA       MOCLDY    64  37  36 CALM      30.03R
FARIBAULT      MOCLDY    64  37  36 N3        30.03R
$$

...ELSEWHERE IN MINNESOTA...


CITY           SKY/WX    TMP DP  RH WIND       PRES   REMARKS
MINNEAPOLIS    PTCLDY    67  25  20 NW6       30.02R
INTNL FALLS    CLEAR     53  29  39 N14G23    30.07R
DULUTH         CLEAR     59  24  26 W8        29.99R
RED WING       PTCLDY    59  37  44 CALM      30.01R
REDWOOD FALLS  PTCLDY    64  23  21 NW3       30.03R
MANKATO        MOCLDY    64  34  32 N8        30.03R
WORTHINGTON    MOCLDY    64  28  25 N8        30.05R
FAIRMONT       MOCLDY    64  36  34 CALM      30.03R
$$

...SOUTHWEST WISCONSIN...


CITY           SKY/WX    TMP DP  RH WIND       PRES   REMARKS
LA CROSSE      PTCLDY    64  47  53 CALM      29.98R
PRAIRIE DU CHI PTCLDY    67  43  41 CALM      29.99R
BOSCOBEL       CLEAR     62  45  53 CALM      30.00R
LONE ROCK      NOT AVBL
PLATTEVILLE    PTCLDY    71  45  40 CALM      30.00R
FORT MC COY    CLEAR     59  42  52 CALM      30.00R
VIROQUA        FAIR      65  41  41 CALM      30.01R
WIS DELLS      CLEAR     65  40  38 CALM      29.99R
$$

...ELSEWHERE IN WISCONSIN...


CITY           SKY/WX    TMP DP  RH WIND       PRES   REMARKS
MILWAUKEE      PTCLDY    50  38  63 CALM      30.01R
MADISON        PTCLDY    63  45  51 CALM      29.99R
GREEN BAY      CLEAR     60  42  51 S7        29.97R
EAU CLAIRE     CLEAR     63  31  30 NW6       30.01R
BLACK RVR FLS  FAIR      57  42  56 CALM      29.99R
MEDFORD        FAIR      60  36  41 W5        30.01R
WAUSAU         CLEAR     64  40  41 W7        29.98R
WIS RAPIDS     CLEAR     60  41  49 CALM      30.00R
MARSHFIELD     CLEAR     62  44  51 NW6       30.00R
RICE LAKE      PTCLDY    60  30  31 CALM      30.03R
$$

...NORTHEAST IOWA...


CITY           SKY/WX    TMP DP  RH WIND       PRES   REMARKS
DECORAH        PTCLDY    68  43  40 CALM      30.00S
MASON CITY     MOCLDY    61  48  62 N6        30.04R
CHARLES CITY   MOCLDY    68  45  42 N6        30.02R
OELWEIN        MOCLDY    68  46  45 NE6       30.01R
$$

...ELSEWHERE IN IOWA...


CITY           SKY/WX    TMP DP  RH WIND       PRES   REMARKS
DES MOINES     CLOUDY    74  50  42 NE3       30.00R
IOWA CITY      MOCLDY    65  52  62 CALM      30.01R
FORT DODGE     MOCLDY    66  45  45 N5        30.03R
$$

...NORTHERN ILLINOIS...


CITY           SKY/WX    TMP DP  RH WIND       PRES   REMARKS
CHICAGO-OHARE  PTCLDY    63  46  54 SE7       30.00R
CHICAGO-MIDWAY PTCLDY    69  45  41 E6        30.00R
MOLINE         MOCLDY    63  49  60 CALM      30.00R
ROCKFORD       MOCLDY    70  48  45 CALM      30.02R
PEORIA         MOCLDY    70  52  52 CALM      30.01R
$$

NOTE: "FAIR" INDICATES FEW OR NO CLOUDS BELOW 12,000 FEET WITH NO
SIGNIFICANT WEATHER AND/OR OBSTRUCTIONS TO VISIBILITY. WIND
SPEEDS ARE IN MILES-PER-HOUR.



USA.gov is the U.S. government's official web portal to all federal, state and local government web resources and services.